Simultaneous Nadir Overpasses (SNOs) Predictions

Prediction of SNOs between LANDSAT-8 and NOAA-19 Satellite Orbit:

Table of predicted SNOs for the next 14.0 days since TLE Epoch: 4/8/2023
Index Date (LANDSAT-8) Time (LANDSAT-8) Lat,Lon (LANDSAT-8) SZA (LANDSAT-8 ) Date (NOAA-19) Time (NOAA-19) Lat,Lon (NOAA-19) SZA (NOAA-19 ) Distance(km) Time Diff (sec)
1 04/08/2023 16:28:51 -80.94, 149.64 104.58 04/08/2023 16:28:24 -80.94, 149.54 104.60 1.97 27
2 04/08/2023 17:18:17 80.95, -42.64 75.43 04/08/2023 17:19:21 80.94, -42.60 75.45 1.55 64
3 04/10/2023 22:51:58 -80.94, 53.83 105.40 04/10/2023 22:51:59 -80.94, 53.73 105.41 1.81 1
4 04/13/2023 04:25:38 80.93, 150.29 73.79 04/13/2023 04:24:33 80.94, 150.29 73.76 0.47 65
5 04/13/2023 05:15:05 -80.93, -42.12 106.24 04/13/2023 05:15:34 -80.94, -42.14 106.22 1.00 29
6 04/15/2023 10:48:44 80.94, 54.53 72.99 04/15/2023 10:48:07 80.94, 54.50 72.97 0.64 37
7 04/15/2023 11:38:11 -80.93,-137.86 107.03 04/15/2023 11:39:08 -80.94,-137.72 106.99 2.48 57
8 04/17/2023 17:11:50 80.93, -41.37 72.18 04/17/2023 17:11:41 80.94, -41.36 72.19 1.31 9
9 04/19/2023 22:45:29 -80.94, 55.33 108.56 04/19/2023 22:44:20 -80.94, 55.18 108.60 2.63 69



Historial Predications of SNOs between LANDSAT-8 and NOAA-19
